| time (UTC) | temp F | wind direction | speed knots | gust knots | rain 1hr in | rain 24hr in | rain mn in | humidity % | barometer mb |
| 20260503214003 | 61 | 220 | 2.6 | 6.1 | 0.00 | 0.00 | 0.32 | 57 | 1012.6 |
| 20260503213503 | 61 | 212 | 2.6 | 6.1 | 0.00 | 0.00 | 0.32 | 57 | 1012.5 |
| 20260503213003 | 61 | 212 | 3.5 | 6.1 | 0.00 | 0.00 | 0.32 | 57 | 1012.7 |
| 20260503212503 | 61 | 213 | 2.6 | 5.2 | 0.00 | 0.00 | 0.32 | 57 | 1012.6 |
| 20260503212024 | 61 | 216 | 2.6 | 6.1 | 0.00 | 0.00 | 0.32 | 56 | 1012.5 |
| 20260503211503 | 61 | 227 | 2.6 | 6.1 | 0.00 | 0.00 | 0.32 | 56 | 1012.5 |
| 20260503211024 | 61 | 244 | 3.5 | 7.8 | 0.00 | 0.00 | 0.32 | 57 | 1012.3 |
| 20260503210524 | 61 | 246 | 3.5 | 7.8 | 0.00 | 0.00 | 0.32 | 56 | 1012.3 |
| 20260503210003 | 61 | 246 | 3.5 | 7.8 | 0.00 | 0.00 | 0.32 | 56 | 1012.1 |
| 20260503205503 | 61 | 246 | 3.5 | 7.8 | 0.00 | 0.00 | 0.32 | 56 | 1012.1 |
| 20260503205003 | 61 | 244 | 3.5 | 7.0 | 0.00 | 0.00 | 0.32 | 56 | 1012.3 |
| 20260503204503 | 61 | 243 | 3.5 | 7.8 | 0.00 | 0.00 | 0.32 | 57 | 1012.2 |
| 20260503204003 | 61 | 238 | 3.5 | 7.8 | 0.00 | 0.00 | 0.32 | 57 | 1012.0 |
| 20260503203503 | 61 | 239 | 4.3 | 9.6 | 0.00 | 0.00 | 0.32 | 58 | 1012.0 |
| 20260503203003 | 61 | 237 | 4.3 | 9.6 | 0.00 | 0.00 | 0.32 | 57 | 1012.1 |
| 20260503202503 | 61 | 226 | 4.3 | 9.6 | 0.00 | 0.00 | 0.32 | 57 | 1012.0 |
| 20260503202003 | 61 | 224 | 3.5 | 9.6 | 0.00 | 0.00 | 0.32 | 59 | 1011.9 |
| 20260503201503 | 61 | 237 | 3.5 | 7.8 | 0.00 | 0.00 | 0.32 | 59 | 1011.7 |
| 20260503201003 | 62 | 237 | 3.5 | 7.8 | 0.00 | 0.00 | 0.32 | 58 | 1011.8 |
| 20260503200503 | 62 | 242 | 4.3 | 8.7 | 0.00 | 0.00 | 0.32 | 59 | 1011.5 |
| 20260503200003 | 62 | 251 | 4.3 | 8.7 | 0.00 | 0.00 | 0.32 | 60 | 1011.6 |
| 20260503195524 | 62 | 250 | 4.3 | 8.7 | 0.00 | 0.00 | 0.32 | 60 | 1011.9 |
| 20260503195003 | 62 | 249 | 4.3 | 7.8 | 0.00 | 0.00 | 0.32 | 61 | 1011.7 |
| 20260503194502 | 62 | 249 | 3.5 | 7.0 | 0.00 | 0.00 | 0.32 | 61 | 1011.6 |
| 20260503194023 | 62 | 253 | 3.5 | 7.8 | 0.00 | 0.00 | 0.32 | 63 | 1011.4 |
| 20260503193503 | 62 | 261 | 3.5 | 7.8 | 0.00 | 0.00 | 0.32 | 63 | 1011.2 |
| 20260503193003 | 62 | 260 | 3.5 | 6.1 | 0.00 | 0.00 | 0.32 | 64 | 1011.4 |
| 20260503192503 | 62 | 257 | 4.3 | 7.8 | 0.00 | 0.00 | 0.32 | 63 | 1011.4 |
| 20260503192003 | 62 | 256 | 5.2 | 11.3 | 0.00 | 0.00 | 0.32 | 63 | 1011.3 |
| 20260503191503 | 62 | 247 | 4.3 | 11.3 | 0.00 | 0.00 | 0.32 | 62 | 1011.3 |
| 20260503191003 | 62 | 250 | 4.3 | 9.6 | 0.00 | 0.00 | 0.32 | 62 | 1011.3 |
| 20260503190503 | 62 | 256 | 5.2 | 9.6 | 0.00 | 0.00 | 0.32 | 62 | 1011.1 |
| 20260503190003 | 63 | 249 | 4.3 | 9.6 | 0.00 | 0.00 | 0.32 | 61 | 1011.2 |
| 20260503185502 | 63 | 255 | 4.3 | 12.2 | 0.00 | 0.00 | 0.32 | 61 | 1011.1 |
| 20260503185024 | 63 | 260 | 5.2 | 12.2 | 0.00 | 0.00 | 0.32 | 60 | 1010.8 |
| 20260503184524 | 63 | 260 | 6.1 | 12.2 | 0.00 | 0.00 | 0.32 | 60 | 1011.1 |
| 20260503184003 | 63 | 260 | 7.0 | 12.2 | 0.00 | 0.00 | 0.32 | 60 | 1011.0 |
| 20260503183503 | 63 | 254 | 6.1 | 12.2 | 0.00 | 0.00 | 0.32 | 61 | 1011.1 |
| 20260503183003 | 64 | 249 | 6.1 | 11.3 | 0.00 | 0.00 | 0.32 | 59 | 1010.8 |
| 20260503182503 | 64 | 253 | 6.1 | 12.2 | 0.00 | 0.00 | 0.32 | 58 | 1010.6 |
| 20260503182003 | 64 | 256 | 7.0 | 13.0 | 0.00 | 0.00 | 0.32 | 59 | 1010.7 |
| 20260503181504 | 64 | 256 | 7.0 | 13.0 | 0.00 | 0.00 | 0.32 | 58 | 1011.0 |
| 20260503181003 | 64 | 262 | 6.1 | 13.9 | 0.00 | 0.00 | 0.32 | 58 | 1010.7 |
| 20260503180502 | 64 | 260 | 6.1 | 13.9 | 0.00 | 0.00 | 0.32 | 57 | 1010.7 |
| 20260503180003 | 64 | 254 | 5.2 | 13.0 | 0.00 | 0.00 | 0.32 | 56 | 1011.0 |
| 20260503175503 | 65 | 259 | 7.0 | 15.6 | 0.00 | 0.00 | 0.32 | 55 | 1011.0 |
| 20260503175003 | 65 | 255 | 7.0 | 15.6 | 0.00 | 0.00 | 0.32 | 55 | 1010.8 |
| 20260503174502 | 65 | 252 | 7.0 | 13.0 | 0.00 | 0.00 | 0.32 | 56 | 1011.0 |
| 20260503174002 | 65 | 248 | 6.1 | 13.0 | 0.00 | 0.00 | 0.32 | 57 | 1010.8 |
| 20260503173503 | 65 | 235 | 5.2 | 12.2 | 0.00 | 0.00 | 0.32 | 57 | 1010.7 |
| 20260503173024 | 65 | 242 | 6.1 | 13.9 | 0.00 | 0.00 | 0.32 | 56 | 1010.7 |
| 20260503172502 | 64 | 238 | 7.0 | 13.9 | 0.00 | 0.00 | 0.32 | 57 | 1010.8 |
| 20260503172002 | 65 | 219 | 7.0 | 15.6 | 0.00 | 0.00 | 0.32 | 57 | 1010.8 |
| 20260503171503 | 65 | 233 | 7.0 | 15.6 | 0.00 | 0.00 | 0.32 | 57 | 1010.8 |
| 20260503171002 | 65 | 243 | 6.1 | 13.0 | 0.00 | 0.00 | 0.32 | 57 | 1010.8 |
| 20260503170503 | 65 | 243 | 5.2 | 12.2 | 0.00 | 0.00 | 0.32 | 56 | 1010.8 |
| 20260503151002 | 66 | 219 | 7.8 | 16.5 | 0.00 | 0.00 | 0.32 | 54 | 1011.0 |
| 20260503150502 | 65 | 214 | 7.8 | 16.5 | 0.00 | 0.00 | 0.32 | 54 | 1011.0 |
| 20260503131002 | 65 | 247 | 8.7 | 15.6 | 0.00 | 0.01 | 0.32 | 59 | 1011.8 |
| 20260503130502 | 65 | 242 | 7.8 | 15.6 | 0.00 | 0.01 | 0.32 | 58 | 1011.6 |
| 20260503110502 | 63 | 222 | 7.0 | 13.0 | 0.00 | 0.64 | 0.32 | 69 | 1012.8 |
| 20260503090502 | 59 | 204 | 3.5 | 7.8 | 0.00 | 0.71 | 0.32 | 90 | 1013.5 |
| 20260503081502 | 56 | 199 | 2.6 | 7.8 | 0.00 | 0.73 | 0.32 | 99 | 1013.7 |
| 20260503081002 | 56 | 190 | 2.6 | 6.1 | 0.00 | 0.73 | 0.32 | 99 | 1013.8 |
| 20260503080502 | 56 | 192 | 2.6 | 5.2 | 0.00 | 0.73 | 0.32 | 99 | 1013.8 |
| 20260503072502 | 55 | 183 | 2.6 | 5.2 | 0.00 | 0.87 | 0.32 | 98 | 1013.5 |
| 20260503072002 | 55 | 185 | 2.6 | 3.5 | 0.00 | 0.89 | 0.00 | 98 | 1013.4 |
| 20260503071523 | 55 | 194 | 2.6 | 3.5 | 0.00 | 0.89 | 0.00 | 98 | 1013.3 |
| 20260503071002 | 54 | 189 | 2.6 | 5.2 | 0.00 | 0.89 | 0.00 | 98 | 1013.3 |
| 20260503070523 | 54 | 190 | 2.6 | 5.2 | 0.00 | 0.89 | 0.00 | 98 | 1013.4 |
| 20260503055002 | 55 | 160 | 0.9 | 2.6 | 0.00 | 0.95 | 0.00 | 95 | 1013.1 |
| 20260503054502 | 55 | 144 | 0.9 | 2.6 | 0.00 | 0.95 | 0.00 | 95 | 1013.0 |
| 20260503054002 | 55 | 131 | 0.9 | 1.7 | 0.00 | 0.95 | 0.00 | 95 | 1013.0 |
| 20260503053502 | 55 | 121 | 0.9 | 2.6 | 0.00 | 0.95 | 0.00 | 95 | 1013.0 |
| 20260503053023 | 55 | 109 | 0.9 | 2.6 | 0.00 | 0.95 | 0.00 | 96 | 1012.9 |
| 20260503052502 | 55 | 110 | 0.9 | 1.7 | 0.00 | 0.95 | 0.00 | 96 | 1012.9 |
| 20260503052002 | 55 | 118 | 0.9 | 1.7 | 0.00 | 0.95 | 0.00 | 96 | 1013.3 |
| 20260503051523 | 55 | 107 | 0.0 | 1.7 | 0.00 | 0.95 | 0.00 | 96 | 1013.1 |
| 20260503051002 | 55 | 85 | 0.0 | 0.9 | 0.00 | 0.95 | 0.00 | 96 | 1013.0 |
| 20260503050502 | 55 | 73 | 0.0 | 1.7 | 0.00 | 0.95 | 0.00 | 96 | 1013.2 |
| 20260503050002 | 55 | 70 | 0.9 | 1.7 | 0.00 | 0.95 | 0.00 | 96 | 1013.0 |
| 20260503045502 | 55 | 63 | 0.9 | 1.7 | 0.00 | 0.95 | 0.00 | 96 | 1013.1 |
| 20260503045002 | 55 | 45 | 0.0 | 0.9 | 0.00 | 0.95 | 0.00 | 96 | 1012.9 |
| 20260503044523 | 55 | 41 | 0.0 | 0.9 | 0.00 | 0.95 | 0.00 | 96 | 1013.3 |
| 20260503044023 | 55 | 47 | 0.0 | 0.9 | 0.00 | 0.95 | 0.00 | 96 | 1013.2 |
| 20260503043523 | 55 | 46 | 0.0 | 0.9 | 0.00 | 0.95 | 0.00 | 96 | 1013.1 |
| 20260503043002 | 55 | 60 | 0.0 | 0.9 | 0.00 | 0.95 | 0.00 | 96 | 1013.1 |
| 20260503042523 | 55 | 71 | 0.9 | 3.5 | 0.00 | 0.95 | 0.00 | 96 | 1013.1 |
| 20260503042002 | 55 | 76 | 1.7 | 3.5 | 0.00 | 0.95 | 0.00 | 96 | 1012.9 |
| 20260503041523 | 55 | 78 | 1.7 | 3.5 | 0.00 | 0.95 | 0.00 | 96 | 1013.2 |
| 20260503041023 | 55 | 74 | 1.7 | 3.5 | 0.00 | 0.95 | 0.00 | 96 | 1013.2 |
| 20260503040502 | 54 | 72 | 2.6 | 3.5 | 0.00 | 0.95 | 0.00 | 96 | 1013.1 |
| 20260503040002 | 55 | 72 | 2.6 | 3.5 | 0.00 | 0.95 | 0.00 | 96 | 1013.2 |